Location: Addison Town Hall
(32.9525°N, 96.8158°W)
Time: 22:47:27
(UTC+00:00)

Timation 2 Rocket - Pass Details

Date: 08 March 2021
Orbit: 906 x 1075 km, 70.0° (Epoch: 11 April)

Event Time Altitude Azimuth Distance (km) Brightness Sun altitude
Rises 12:16:06 0° 212° (SSW) 3,849 6.8 -7.1°
Reaches altitude 10° 12:18:46 10° 216° (SW) 2,900 6.2 -6.6°
Maximum altitude 12:25:30 59° 294° (WNW) 1,227 4.3 -5.2°
Drops below altitude 10° 12:32:12 10° 13° (NNE) 2,874 6.6 -3.8°
Sets 12:34:51 0° 18° (NNE) 3,812 7.3 -3.2°
